Simultaneous Nadir Overpasses (SNOs) Predictions

Prediction of SNOs near US between AQUA and NPP Satellite Orbit:

Table of predicted SNOs near US for the next 10.0 days since TLE Epoch: 6/26/2021
Index Date (AQUA) Time (AQUA) AQUA Lat,Lon Date (NPP) Time (NPP) NPP Lat,Lon Distance(km) Time Diff (sec)
1 06/28/2021 09:23:39 22.42,-113.66 06/28/2021 09:15:59 22.50,-114.15 50.89 460
2 07/01/2021 06:30:07 46.30, -65.04 07/01/2021 06:30:30 46.70, -67.07 161.94 23
3 07/01/2021 08:07:59 49.92, -88.32 07/01/2021 08:10:55 50.44, -90.85 188.90 176
4 07/01/2021 09:46:52 49.92,-113.04 07/01/2021 09:52:23 50.55,-116.17 233.29 331
5 07/03/2021 19:06:08 49.98, -92.52 07/03/2021 19:01:15 49.66, -94.46 144.04 293
6 07/03/2021 20:45:01 49.98,-117.24 07/03/2021 20:42:43 49.55,-119.79 189.34 138
